This is the latest recevied weather packets stored in our database for station/object KC0UFP. If no packets are shown the sender has not sent any weather packets the latest 10 day(s).
| Time | Temp. | Humidity | Pressure | Rain* | Wind** | Luminosity | Snow |
|---|---|---|---|---|---|---|---|
| 1778171192 | 17.22° C | 48% | 1017.8 hPa | 0 mm | - | 842 W/m² | - |
| 1778170883 | 17.22° C | 46% | 1018 hPa | 0 mm | - | 846 W/m² | - |
| 1778170579 | 17.22° C | 51% | 1017.7 hPa | 0 mm | - | 849 W/m² | - |
| 1778170276 | 17.22° C | 49% | 1018.1 hPa | 0 mm | - | 846 W/m² | - |
| 1778169972 | 16.67° C | 53% | 1017.9 hPa | 0 mm | - | 836 W/m² | - |
| 1778169669 | 16.11° C | 48% | 1018.1 hPa | 0 mm | - | 841 W/m² | - |
| 1778169364 | 15.56° C | 56% | 1017.9 hPa | 0 mm | - | 835 W/m² | - |
| 1778169061 | 15.56° C | 55% | 1018 hPa | 0 mm | - | 831 W/m² | - |
| 1778168758 | 15.56° C | 56% | 1018.1 hPa | 0 mm | - | 829 W/m² | - |
| 1778168455 | 15.56° C | 54% | 1018 hPa | 0 mm | - | 825 W/m² | - |
| 1778168152 | 15.56° C | 59% | 1018.1 hPa | 0 mm | - | 817 W/m² | - |
| 1778167848 | 15° C | 58% | 1017.8 hPa | 0 mm | - | 805 W/m² | - |
| 1778167544 | 15.56° C | 61% | 1017.9 hPa | 0 mm | - | 794 W/m² | - |
| 1778167241 | 15° C | 60% | 1018 hPa | 0 mm | - | 778 W/m² | - |
| 1778166937 | 15° C | 60% | 1018.1 hPa | 0 mm | - | 762 W/m² | - |
| 1778166634 | 15° C | 65% | 1018.3 hPa | 0 mm | - | 747 W/m² | - |
| 1778166331 | 15.56° C | 64% | 1018.3 hPa | 0 mm | - | 731 W/m² | - |
| 1778166028 | 14.44° C | 63% | 1018.6 hPa | 0 mm | - | 710 W/m² | - |
| 1778165722 | 14.44° C | 63% | 1018.3 hPa | 0 mm | - | 694 W/m² | - |
| 1778165421 | 14.44° C | 68% | 1018.5 hPa | 0 mm | - | 676 W/m² | - |
| 1778165117 | 14.44° C | 71% | 1018.3 hPa | 0 mm | - | 654 W/m² | - |
| 1778164814 | 13.89° C | 68% | 1018.5 hPa | 0 mm | - | 635 W/m² | - |
| 1778164512 | 13.89° C | 68% | 1018 hPa | 0 mm | - | 619 W/m² | - |
| 1778164209 | 13.89° C | 66% | 1017.9 hPa | 0 mm | - | 602 W/m² | - |
| 1778163904 | 14.44° C | 68% | 1018.3 hPa | 0 mm | - | 583 W/m² | - |
* Rain latest hour (hover to see other rain measurements)
** Current wind speed in m/s (hover to see current wind gust speed)